| time (UTC) | temp C | wind direction | speed KPH | gust KPH | rain 1hr cm | rain 24hr cm | rain mn cm | humidity % | barometer mb |
| 20260504235115 | 20 | 29 | 16.1 | 32.2 | 0.00 | 0.00 | 0.00 | 33 | 1004.2 |
| 20260504234615 | 20 | 27 | 12.9 | 35.4 | 0.00 | 0.00 | 0.00 | 33 | 1004.1 |
| 20260504234115 | 20 | 36 | 12.9 | 24.1 | 0.00 | 0.00 | 0.00 | 33 | 1004.4 |
| 20260504233615 | 20 | 97 | 11.3 | 29.0 | 0.00 | 0.00 | 0.00 | 33 | 1004.3 |
| 20260504233115 | 20 | 53 | 11.3 | 20.9 | 0.00 | 0.00 | 0.00 | 33 | 1004.2 |
| 20260504232615 | 21 | 44 | 12.9 | 24.1 | 0.00 | 0.00 | 0.00 | 32 | 1004.1 |
| 20260504232115 | 21 | 333 | 11.3 | 25.7 | 0.00 | 0.00 | 0.00 | 32 | 1004.1 |
| 20260504231615 | 21 | 5 | 12.9 | 25.7 | 0.00 | 0.00 | 0.00 | 32 | 1004.0 |
| 20260504231115 | 21 | 37 | 12.9 | 25.7 | 0.00 | 0.00 | 0.00 | 31 | 1003.8 |
| 20260504230615 | 21 | 40 | 12.9 | 29.0 | 0.00 | 0.00 | 0.00 | 31 | 1003.7 |
| 20260504230115 | 21 | 321 | 12.9 | 30.6 | 0.00 | 0.00 | 0.00 | 31 | 1003.6 |
| 20260504225615 | 21 | 65 | 12.9 | 32.2 | 0.00 | 0.00 | 0.00 | 30 | 1003.8 |
| 20260504225115 | 21 | 26 | 12.9 | 29.0 | 0.00 | 0.00 | 0.00 | 30 | 1004.0 |
| 20260504224615 | 21 | 37 | 11.3 | 25.7 | 0.00 | 0.00 | 0.00 | 30 | 1003.9 |
| 20260504224115 | 22 | 30 | 11.3 | 25.7 | 0.00 | 0.00 | 0.00 | 30 | 1003.7 |
| 20260504223615 | 22 | 32 | 9.7 | 20.9 | 0.00 | 0.00 | 0.00 | 30 | 1003.7 |
| 20260504223115 | 22 | 16 | 11.3 | 24.1 | 0.00 | 0.00 | 0.00 | 30 | 1003.7 |
| 20260504222615 | 22 | 62 | 12.9 | 27.4 | 0.00 | 0.00 | 0.00 | 30 | 1003.6 |
| 20260504222115 | 22 | 67 | 14.5 | 32.2 | 0.00 | 0.00 | 0.00 | 29 | 1003.6 |
| 20260504221615 | 22 | 39 | 11.3 | 35.4 | 0.00 | 0.00 | 0.00 | 29 | 1003.5 |
| 20260504221115 | 22 | 20 | 9.7 | 22.5 | 0.00 | 0.00 | 0.00 | 30 | 1003.5 |
| 20260504220615 | 22 | 37 | 11.3 | 25.7 | 0.00 | 0.00 | 0.00 | 28 | 1003.3 |
| 20260504220115 | 22 | 49 | 12.9 | 27.4 | 0.00 | 0.00 | 0.00 | 29 | 1003.1 |
| 20260504215615 | 22 | 15 | 12.9 | 24.1 | 0.00 | 0.00 | 0.00 | 28 | 1003.4 |
| 20260504215115 | 23 | 59 | 12.9 | 30.6 | 0.00 | 0.00 | 0.00 | 28 | 1003.4 |
| 20260504214615 | 23 | 30 | 12.9 | 27.4 | 0.00 | 0.00 | 0.00 | 29 | 1003.4 |
| 20260504214115 | 23 | 25 | 11.3 | 19.3 | 0.00 | 0.00 | 0.00 | 29 | 1003.4 |
| 20260504213615 | 23 | 52 | 11.3 | 25.7 | 0.00 | 0.00 | 0.00 | 29 | 1003.3 |
| 20260504213115 | 24 | 36 | 9.7 | 20.9 | 0.00 | 0.00 | 0.00 | 29 | 1003.5 |
| 20260504212615 | 24 | 41 | 9.7 | 19.3 | 0.00 | 0.00 | 0.00 | 30 | 1003.2 |
| 20260504212115 | 23 | 112 | 14.5 | 24.1 | 0.00 | 0.00 | 0.00 | 31 | 1003.2 |
| 20260504211615 | 23 | 5 | 12.9 | 24.1 | 0.00 | 0.00 | 0.00 | 31 | 1003.1 |
| 20260504211115 | 23 | 78 | 9.7 | 29.0 | 0.00 | 0.00 | 0.00 | 33 | 1003.1 |
| 20260504210615 | 23 | 13 | 8.0 | 19.3 | 0.00 | 0.00 | 0.00 | 33 | 1003.3 |
| 20260504210115 | 23 | 13 | 9.7 | 20.9 | 0.00 | 0.00 | 0.00 | 33 | 1003.3 |
| 20260504205615 | 23 | 5 | 11.3 | 20.9 | 0.00 | 0.00 | 0.00 | 33 | 1003.2 |
| 20260504205115 | 23 | 355 | 9.7 | 20.9 | 0.00 | 0.00 | 0.00 | 32 | 1003.0 |
| 20260504204615 | 23 | 9 | 11.3 | 17.7 | 0.00 | 0.00 | 0.00 | 33 | 1003.2 |
| 20260504204115 | 24 | 55 | 11.3 | 30.6 | 0.00 | 0.00 | 0.00 | 33 | 1002.9 |
| 20260504203615 | 24 | 53 | 9.7 | 20.9 | 0.00 | 0.00 | 0.00 | 34 | 1003.0 |
| 20260504203115 | 24 | 340 | 9.7 | 19.3 | 0.00 | 0.00 | 0.00 | 33 | 1003.0 |
| 20260504202615 | 25 | 21 | 9.7 | 27.4 | 0.00 | 0.00 | 0.00 | 32 | 1002.9 |
| 20260504202115 | 25 | 27 | 9.7 | 17.7 | 0.00 | 0.00 | 0.00 | 33 | 1002.7 |
| 20260504201615 | 25 | 28 | 9.7 | 17.7 | 0.00 | 0.00 | 0.00 | 34 | 1002.7 |
| 20260504201115 | 25 | 317 | 11.3 | 19.3 | 0.00 | 0.00 | 0.00 | 34 | 1002.8 |
| 20260504200615 | 25 | 41 | 11.3 | 24.1 | 0.00 | 0.00 | 0.00 | 32 | 1003.0 |
| 20260504200115 | 25 | 61 | 9.7 | 22.5 | 0.00 | 0.00 | 0.00 | 32 | 1002.9 |
| 20260504195615 | 25 | 44 | 9.7 | 22.5 | 0.00 | 0.00 | 0.00 | 32 | 1002.9 |
| 20260504195115 | 25 | 22 | 11.3 | 24.1 | 0.00 | 0.00 | 0.00 | 32 | 1002.7 |
| 20260504194615 | 26 | 55 | 11.3 | 22.5 | 0.00 | 0.00 | 0.00 | 30 | 1002.5 |
| 20260504194115 | 26 | 19 | 9.7 | 22.5 | 0.00 | 0.00 | 0.00 | 30 | 1002.5 |
| 20260504193615 | 26 | 55 | 9.7 | 19.3 | 0.00 | 0.00 | 0.00 | 31 | 1002.4 |
| 20260504193115 | 26 | 26 | 9.7 | 20.9 | 0.00 | 0.00 | 0.00 | 30 | 1002.5 |
| 20260504192615 | 26 | 355 | 11.3 | 20.9 | 0.00 | 0.00 | 0.00 | 29 | 1002.4 |
| 20260504192115 | 26 | 355 | 11.3 | 24.1 | 0.00 | 0.00 | 0.00 | 29 | 1002.4 |
| 20260504191616 | 26 | 38 | 11.3 | 24.1 | 0.00 | 0.00 | 0.00 | 30 | 1002.6 |
| 20260504191115 | 26 | 319 | 9.7 | 24.1 | 0.00 | 0.00 | 0.00 | 29 | 1002.6 |
| 20260504190615 | 26 | 5 | 8.0 | 24.1 | 0.00 | 0.00 | 0.00 | 30 | 1002.6 |
| 20260504190115 | 26 | 94 | 8.0 | 17.7 | 0.00 | 0.00 | 0.00 | 29 | 1002.5 |
| 20260504185615 | 26 | 86 | 9.7 | 25.7 | 0.00 | 0.00 | 0.00 | 1002.5 | |
| 20260504185115 | 26 | 68 | 11.3 | 20.9 | 0.00 | 0.00 | 0.00 | 29 | 1002.5 |
| 20260504184615 | 27 | 63 | 9.7 | 22.5 | 0.00 | 0.00 | 0.00 | 28 | 1002.5 |
| 20260504184115 | 27 | 38 | 9.7 | 22.5 | 0.00 | 0.00 | 0.00 | 26 | 1002.4 |
| 20260504183615 | 27 | 316 | 8.0 | 19.3 | 0.00 | 0.00 | 0.00 | 27 | 1002.5 |
| 20260504183115 | 26 | 24 | 6.4 | 17.7 | 0.00 | 0.00 | 0.00 | 25 | 1002.4 |
| 20260504182615 | 26 | 286 | 4.8 | 12.9 | 0.00 | 0.00 | 0.00 | 22 | 1002.3 |
| 20260504182115 | 26 | 350 | 4.8 | 9.7 | 0.00 | 0.00 | 0.00 | 23 | 1002.4 |
| 20260504181615 | 27 | 327 | 4.8 | 12.9 | 0.00 | 0.00 | 0.00 | 24 | 1002.5 |
| 20260504181115 | 26 | 319 | 4.8 | 12.9 | 0.00 | 0.00 | 0.00 | 26 | 1002.6 |
| 20260504180616 | 26 | 273 | 6.4 | 12.9 | 0.00 | 0.00 | 0.00 | 24 | 1002.6 |
| 20260504180116 | 26 | 346 | 6.4 | 20.9 | 0.00 | 0.00 | 0.00 | 24 | 1002.7 |
| 20260504175616 | 26 | 336 | 6.4 | 17.7 | 0.00 | 0.00 | 0.00 | 23 | 1002.4 |
| 20260504175116 | 26 | 335 | 8.0 | 24.1 | 0.00 | 0.00 | 0.00 | 21 | 1002.6 |
| 20260504174616 | 26 | 0 | 6.4 | 17.7 | 0.00 | 0.00 | 0.00 | 21 | 1002.7 |
| 20260504174116 | 26 | 278 | 6.4 | 17.7 | 0.00 | 0.00 | 0.00 | 23 | 1002.7 |
| 20260504173616 | 26 | 313 | 6.4 | 19.3 | 0.00 | 0.00 | 0.00 | 22 | 1002.8 |
| 20260504173116 | 26 | 355 | 8.0 | 17.7 | 0.00 | 0.00 | 0.00 | 20 | 1002.7 |
| 20260504172616 | 26 | 248 | 6.4 | 24.1 | 0.00 | 0.00 | 0.00 | 21 | 1002.9 |
| 20260504172116 | 26 | 346 | 4.8 | 14.5 | 0.00 | 0.00 | 0.00 | 21 | 1002.8 |
| 20260504171616 | 26 | 310 | 6.4 | 14.5 | 0.00 | 0.00 | 0.00 | 21 | 1002.8 |
| 20260504171116 | 26 | 321 | 6.4 | 19.3 | 0.00 | 0.00 | 0.00 | 21 | 1002.9 |
| 20260504170616 | 26 | 273 | 6.4 | 22.5 | 0.00 | 0.00 | 0.00 | 23 | 1002.9 |
| 20260504170116 | 26 | 71 | 6.4 | 12.9 | 0.00 | 0.00 | 0.00 | 26 | 1002.9 |
| 20260504160116 | 23 | 258 | 3.2 | 11.3 | 0.00 | 0.00 | 0.00 | 35 | 1003.2 |
| 20260504151116 | 20 | 307 | 3.2 | 6.4 | 0.00 | 0.00 | 0.00 | 41 | 1003.5 |
| 20260504150616 | 20 | 263 | 3.2 | 9.7 | 0.00 | 0.00 | 0.00 | 41 | 1003.6 |
| 20260504150116 | 20 | 321 | 3.2 | 6.4 | 0.00 | 0.00 | 0.00 | 41 | 1003.6 |
| 20260504141116 | 17 | 296 | 1.6 | 4.8 | 0.00 | 0.00 | 0.00 | 49 | 1003.9 |
| 20260504140616 | 16 | 277 | 3.2 | 4.8 | 0.00 | 0.00 | 0.00 | 50 | 1003.9 |
| 20260504140116 | 16 | 300 | 3.2 | 6.4 | 0.00 | 0.00 | 0.00 | 50 | 1003.8 |
| 20260504130616 | 12 | 348 | 1.6 | 6.4 | 0.00 | 0.00 | 0.00 | 59 | 1003.7 |
| 20260504130116 | 12 | 331 | 1.6 | 3.2 | 0.00 | 0.00 | 0.00 | 60 | 1003.7 |
| 20260504120116 | 9 | 170 | 1.6 | 3.2 | 0.00 | 0.00 | 0.00 | 66 | 1003.3 |
| 20260504110616 | 9 | 167 | 0.0 | 0.0 | 0.00 | 0.00 | 0.00 | 67 | 1002.9 |
| 20260504110116 | 9 | 167 | 0.0 | 0.0 | 0.00 | 0.00 | 0.00 | 67 | 1003.0 |
| 20260504100116 | 11 | 167 | 0.0 | 0.0 | 0.00 | 0.00 | 0.00 | 59 | 1003.1 |
| 20260504090117 | 14 | 167 | 0.0 | 0.0 | 0.00 | 0.00 | 0.00 | 47 | 1003.2 |
| 20260504081617 | 15 | 171 | 3.2 | 3.2 | 0.00 | 0.00 | 0.00 | 45 | 1003.5 |
| 20260504081117 | 15 | 170 | 3.2 | 6.4 | 0.00 | 0.00 | 0.00 | 45 | 1003.6 |
| 20260504080617 | 15 | 167 | 1.6 | 6.4 | 0.00 | 0.00 | 0.00 | 45 | 1003.7 |
| 20260504080117 | 15 | 163 | 1.6 | 3.2 | 0.00 | 0.00 | 0.00 | 45 | 1003.8 |
| 20260504070117 | 15 | 98 | 1.6 | 3.2 | 0.00 | 0.00 | 0.00 | 44 | 1004.8 |
| 20260504060117 | 15 | 107 | 0.0 | 3.2 | 0.00 | 0.00 | 0.00 | 43 | 1006.3 |
| 20260504050617 | 16 | 90 | 0.0 | 3.2 | 0.00 | 0.00 | 0.00 | 41 | 1006.8 |
| 20260504050117 | 16 | 103 | 1.6 | 3.2 | 0.00 | 0.00 | 0.00 | 40 | 1007.0 |
| 20260504045617 | 16 | 103 | 0.0 | 3.2 | 0.00 | 0.00 | 0.00 | 40 | 1007.0 |
| 20260504045117 | 16 | 103 | 0.0 | 1.6 | 0.00 | 0.00 | 0.00 | 39 | 1007.0 |
| 20260504044617 | 16 | 103 | 1.6 | 1.6 | 0.00 | 0.00 | 0.00 | 39 | 1007.0 |
| 20260504044117 | 17 | 103 | 1.6 | 3.2 | 0.00 | 0.00 | 0.00 | 38 | 1007.0 |
| 20260504043617 | 17 | 103 | 1.6 | 3.2 | 0.00 | 0.00 | 0.00 | 38 | 1007.1 |
| 20260504043117 | 17 | 105 | 1.6 | 3.2 | 0.00 | 0.00 | 0.00 | 38 | 1007.1 |
| 20260504042617 | 17 | 105 | 1.6 | 6.4 | 0.00 | 0.00 | 0.00 | 38 | 1007.1 |
| 20260504042117 | 17 | 131 | 0.0 | 3.2 | 0.00 | 0.00 | 0.00 | 38 | 1007.2 |
| 20260504041617 | 17 | 129 | 0.0 | 0.0 | 0.00 | 0.00 | 0.00 | 38 | 1007.3 |
| 20260504041117 | 17 | 129 | 0.0 | 4.8 | 0.00 | 0.00 | 0.00 | 38 | 1007.2 |
| 20260504040617 | 17 | 127 | 0.0 | 3.2 | 0.00 | 0.00 | 0.00 | 38 | 1007.3 |
| 20260504040117 | 17 | 128 | 0.0 | 0.0 | 0.00 | 0.00 | 0.00 | 37 | 1007.3 |
| 20260504035617 | 17 | 128 | 0.0 | 0.0 | 0.00 | 0.00 | 0.00 | 37 | 1007.3 |
| 20260504035117 | 17 | 128 | 1.6 | 1.6 | 0.00 | 0.00 | 0.00 | 38 | 1007.5 |
| 20260504034617 | 17 | 128 | 1.6 | 3.2 | 0.00 | 0.00 | 0.00 | 37 | 1007.5 |
| 20260504034117 | 17 | 128 | 1.6 | 4.8 | 0.00 | 0.00 | 0.00 | 37 | 1007.6 |
| 20260504033617 | 17 | 100 | 0.0 | 3.2 | 0.00 | 0.00 | 0.00 | 37 | 1007.6 |
| 20260504033117 | 17 | 99 | 1.6 | 3.2 | 0.00 | 0.00 | 0.00 | 38 | 1007.8 |
| 20260504032617 | 17 | 98 | 1.6 | 3.2 | 0.00 | 0.00 | 0.00 | 38 | 1007.8 |
| 20260504032117 | 17 | 99 | 1.6 | 4.8 | 0.00 | 0.00 | 0.00 | 38 | 1007.8 |
| 20260504031618 | 17 | 94 | 1.6 | 4.8 | 0.00 | 0.00 | 0.00 | 38 | 1007.9 |
| 20260504031117 | 17 | 75 | 1.6 | 4.8 | 0.00 | 0.00 | 0.00 | 38 | 1007.9 |
| 20260504030617 | 17 | 71 | 1.6 | 4.8 | 0.00 | 0.00 | 0.00 | 39 | 1007.9 |
| 20260504030117 | 17 | 80 | 1.6 | 8.0 | 0.00 | 0.00 | 0.00 | 39 | 1008.0 |
| 20260504025617 | 18 | 63 | 1.6 | 4.8 | 0.00 | 0.00 | 0.00 | 39 | 1008.0 |
| 20260504025117 | 18 | 61 | 1.6 | 6.4 | 0.00 | 0.00 | 0.00 | 39 | 1007.9 |
| 20260504024617 | 18 | 80 | 1.6 | 6.4 | 0.00 | 0.00 | 0.00 | 39 | 1008.0 |
| 20260504024117 | 18 | 68 | 1.6 | 3.2 | 0.00 | 0.00 | 0.00 | 39 | 1008.0 |
| 20260504023617 | 18 | 65 | 1.6 | 4.8 | 0.00 | 0.00 | 0.00 | 39 | 1007.9 |
| 20260504023117 | 18 | 86 | 3.2 | 4.8 | 0.00 | 0.00 | 0.00 | 38 | 1007.9 |
| 20260504022617 | 18 | 63 | 3.2 | 8.0 | 0.00 | 0.00 | 0.00 | 38 | 1008.0 |
| 20260504022117 | 19 | 71 | 3.2 | 6.4 | 0.00 | 0.00 | 0.00 | 37 | 1007.9 |
| 20260504021617 | 19 | 57 | 3.2 | 6.4 | 0.00 | 0.00 | 0.00 | 37 | 1007.8 |
| 20260504021117 | 19 | 49 | 3.2 | 8.0 | 0.00 | 0.00 | 0.00 | 37 | 1007.8 |
| 20260504020618 | 20 | 63 | 3.2 | 4.8 | 0.00 | 0.00 | 0.00 | 37 | 1007.9 |
| 20260504020117 | 20 | 46 | 3.2 | 6.4 | 0.00 | 0.00 | 0.00 | 36 | 1007.8 |
| 20260504015618 | 20 | 80 | 3.2 | 8.0 | 0.00 | 0.00 | 0.00 | 35 | 1007.9 |
| 20260504015118 | 20 | 43 | 3.2 | 8.0 | 0.00 | 0.00 | 0.00 | 35 | 1007.8 |
| 20260504014618 | 20 | 49 | 3.2 | 8.0 | 0.00 | 0.00 | 0.00 | 35 | 1007.8 |
| 20260504014118 | 21 | 57 | 1.6 | 4.8 | 0.00 | 0.00 | 0.00 | 34 | 1007.7 |
| 20260504013618 | 21 | 58 | 1.6 | 3.2 | 0.00 | 0.00 | 0.00 | 34 | 1007.6 |
| 20260504013118 | 21 | 58 | 1.6 | 3.2 | 0.00 | 0.00 | 0.00 | 34 | 1007.7 |
| 20260504012618 | 21 | 58 | 1.6 | 4.8 | 0.00 | 0.00 | 0.00 | 33 | 1007.8 |
| 20260504012118 | 21 | 58 | 1.6 | 4.8 | 0.00 | 0.00 | 0.00 | 33 | 1007.7 |
| 20260504011618 | 21 | 58 | 1.6 | 3.2 | 0.00 | 0.00 | 0.00 | 32 | 1007.7 |
| 20260504011118 | 21 | 58 | 1.6 | 4.8 | 0.00 | 0.00 | 0.00 | 32 | 1007.8 |
| 20260504010618 | 21 | 62 | 1.6 | 3.2 | 0.00 | 0.00 | 0.00 | 32 | 1007.8 |
| 20260504010118 | 21 | 62 | 3.2 | 4.8 | 0.00 | 0.00 | 0.00 | 31 | 1007.9 |
| 20260504005618 | 22 | 71 | 3.2 | 6.4 | 0.00 | 0.00 | 0.00 | 31 | 1007.9 |
| 20260504005118 | 22 | 73 | 3.2 | 6.4 | 0.00 | 0.00 | 0.00 | 31 | 1008.0 |
| 20260504004618 | 22 | 51 | 3.2 | 4.8 | 0.00 | 0.00 | 0.00 | 31 | 1008.1 |
| 20260504004118 | 22 | 29 | 3.2 | 4.8 | 0.00 | 0.00 | 0.00 | 30 | 1008.1 |
| 20260504003618 | 22 | 39 | 3.2 | 6.4 | 0.00 | 0.00 | 0.00 | 30 | 1008.2 |
| 20260504003118 | 22 | 32 | 3.2 | 8.0 | 0.00 | 0.00 | 0.00 | 30 | 1008.2 |
| 20260504002618 | 22 | 56 | 3.2 | 8.0 | 0.00 | 0.00 | 0.00 | 30 | 1008.2 |
| 20260504002118 | 22 | 59 | 4.8 | 6.4 | 0.00 | 0.00 | 0.00 | 29 | 1008.3 |
| 20260504001618 | 22 | 49 | 6.4 | 14.5 | 0.00 | 0.00 | 0.00 | 29 | 1008.3 |
| 20260504001118 | 22 | 82 | 6.4 | 14.5 | 0.00 | 0.00 | 0.00 | 29 | 1008.5 |
| 20260504000618 | 22 | 60 | 4.8 | 12.9 | 0.00 | 0.00 | 0.00 | 29 | 1008.4 |
| 20260504000118 | 22 | 20 | 4.8 | 8.0 | 0.00 | 0.00 | 0.00 | 30 | 1008.5 |
| 20260503235618 | 22 | 56 | 4.8 | 9.7 | 0.00 | 0.00 | 0.00 | 30 | 1008.5 |